VA3KA Weather Reports


Display with metric or nautical units.
time (UTC)temp
F
wind
direction
speed
MPH
gust
MPH
rain 1hr
in
rain 24hr
in
rain mn
in
humidity
%
barometer
mb
20240625142351 73 139 0.0 0.0 0.00 0.00 0.00 72 1010.5
20240625141851 73 139 0.0 0.0 0.00 0.00 0.00 72 1010.6
20240625141351 73 139 0.0 0.0 0.00 0.00 0.00 74 1010.6
20240625140851 72 139 0.0 0.0 0.00 0.00 0.00 76 1010.7
20240625140351 72 139 0.0 0.0 0.00 0.00 0.00 76 1010.8
20240625135851 72 139 0.0 0.0 0.00 0.00 0.00 78 1010.8
20240625135351 71 139 0.0 0.0 0.00 0.00 0.00 77 1010.9
20240625134851 71 139 0.0 0.0 0.00 0.00 0.00 79 1011.0
20240625134352 71 139 0.0 0.0 0.00 0.00 0.00 79 1011.0
20240625133851 70 139 0.0 0.0 0.00 0.00 0.00 78 1010.9
20240625133351 70 139 0.0 0.0 0.00 0.00 0.00 80 1011.0
20240625132851 70 139 0.0 0.0 0.00 0.00 0.00 81 1011.0
20240625132352 70 139 0.0 0.0 0.00 0.00 0.00 83 1011.0
20240625131851 69 139 0.0 0.0 0.00 0.00 0.00 82 1011.1
20240625131351 69 139 0.0 0.0 0.00 0.00 0.00 84 1011.1
20240625130851 69 139 0.0 0.0 0.00 0.00 0.00 85 1011.0
20240625130351 69 139 0.0 0.0 0.00 0.00 0.00 85 1011.1
20240625125851 69 139 0.0 0.0 0.00 0.00 0.00 86 1011.2
20240625125351 68 139 0.0 0.0 0.00 0.00 0.00 87 1011.2
20240625124851 68 139 0.0 0.0 0.00 0.00 0.00 87 1011.3
20240625124352 68 139 0.0 0.0 0.00 0.00 0.00 87 1011.3
20240625123851 68 139 0.0 0.0 0.00 0.00 0.00 87 1011.3
20240625123351 68 139 0.0 0.0 0.00 0.00 0.00 87 1011.3
20240625122851 68 139 0.0 0.0 0.00 0.00 0.00 87 1011.2
20240625122351 68 139 0.0 0.0 0.00 0.00 0.00 87 1011.2
20240625121851 68 139 0.0 0.0 0.00 0.00 0.00 87 1011.2
20240625121352 68 139 0.0 0.0 0.00 0.00 0.00 87 1011.0
20240625120851 68 139 0.0 0.0 0.00 0.00 0.00 87 1010.9
20240625120351 68 139 0.0 0.0 0.00 0.00 0.00 85 1010.8
20240625115851 68 139 0.0 0.0 0.00 0.00 0.00 85 1010.9
20240625115351 68 139 0.0 0.0 0.00 0.00 0.00 85 1010.9
20240625114851 68 139 0.0 0.0 0.00 0.00 0.00 86 1010.9
20240625114351 68 139 0.0 0.0 0.00 0.00 0.00 86 1010.7
20240625113851 68 139 0.0 0.0 0.00 0.00 0.00 86 1010.6
20240625113351 68 139 0.0 0.0 0.00 0.00 0.00 85 1010.7
20240625112850 69 139 0.0 0.0 0.00 0.00 0.00 83 1010.7
20240625112351 70 139 0.0 0.0 0.00 0.00 0.00 81 1010.5
20240625111851 71 139 0.0 0.0 0.00 0.00 0.00 80 1010.5
20240625111351 71 139 0.0 0.0 0.00 0.00 0.00 80 1010.6
20240625110851 70 139 0.0 0.0 0.00 0.00 0.00 84 1010.4
20240625110351 67 139 0.0 0.0 0.00 0.00 0.00 90 1010.2
20240625105851 65 139 0.0 0.0 0.00 0.00 0.00 92 1010.3
20240625105350 64 139 0.0 0.0 0.00 0.00 0.00 92 1010.7
20240625104851 64 139 0.0 0.0 0.00 0.00 0.00 93 1010.3
20240625104351 62 139 0.0 0.0 0.00 0.00 0.00 96 1009.8
20240625103851 60 139 0.0 0.0 0.00 0.00 0.00 96 1009.3
20240625103351 60 139 0.0 0.0 0.00 0.00 0.00 96 1009.3
20240625102851 59 139 0.0 0.0 0.00 0.00 0.00 97 1009.5
20240625102351 58 139 0.0 0.0 0.00 0.00 0.00 98 1009.4
20240625101850 58 139 0.0 0.0 0.00 0.00 0.00 98 1009.4
20240625101351 58 139 0.0 0.0 0.00 0.00 0.00 98 1009.4
20240625100850 57 139 0.0 0.0 0.00 0.00 0.00 98 1009.4
20240625100351 57 139 0.0 0.0 0.00 0.00 0.00 98 1009.5
20240625095851 57 139 0.0 0.0 0.00 0.00 0.00 97 1009.7
20240625095351 57 139 0.0 0.0 0.00 0.00 0.00 97 1009.8
20240625094851 57 139 0.0 0.0 0.00 0.00 0.00 97 1009.9
20240625094351 57 139 0.0 0.0 0.00 0.00 0.00 97 1009.9
20240625093851 57 139 0.0 0.0 0.00 0.00 0.00 97 1009.9
20240625093350 57 139 0.0 0.0 0.00 0.00 0.00 97 1009.9
20240625092851 57 139 0.0 0.0 0.00 0.00 0.00 97 1010.1
20240625092351 57 139 0.0 0.0 0.00 0.00 0.00 97 1010.1
20240625091851 57 139 0.0 0.0 0.00 0.00 0.00 97 1010.2
20240625091351 57 139 0.0 0.0 0.00 0.00 0.00 97 1010.3
20240625090851 58 139 0.0 0.0 0.00 0.00 0.00 97 1010.4
20240625090351 58 139 0.0 0.0 0.00 0.00 0.00 97 1010.5
20240625085850 58 139 0.0 0.0 0.00 0.00 0.00 97 1010.5
20240625085351 58 139 0.0 0.0 0.00 0.00 0.00 97 1010.6
20240625084850 58 139 0.0 0.0 0.00 0.00 0.00 97 1010.6
20240625084351 58 139 0.0 0.0 0.00 0.00 0.00 97 1010.7
20240625083851 58 139 0.0 0.0 0.00 0.00 0.00 97 1010.8
20240625083351 58 139 0.0 0.0 0.00 0.00 0.00 97 1010.8
20240625082851 58 139 0.0 0.0 0.00 0.00 0.00 97 1010.8
20240625082350 59 139 0.0 0.0 0.00 0.00 0.00 97 1010.8
20240625081851 59 139 0.0 0.0 0.00 0.00 0.00 97 1010.8
20240625081351 59 139 0.0 0.0 0.00 0.00 0.00 97 1010.9
20240625080851 59 139 0.0 0.0 0.00 0.00 0.00 96 1011.0
20240625080351 59 139 0.0 0.0 0.00 0.00 0.00 96 1010.9
20240625075851 59 139 0.0 0.0 0.00 0.00 0.00 96 1010.9
20240625075351 59 139 0.0 0.0 0.00 0.00 0.00 96 1010.9
20240625074850 59 139 0.0 0.0 0.00 0.00 0.00 96 1010.8
20240625074351 59 139 0.0 0.0 0.00 0.00 0.00 96 1010.8
20240625073850 59 139 0.0 0.0 0.00 0.00 0.00 96 1010.8
20240625073351 59 139 0.0 0.0 0.00 0.00 0.00 96 1010.8
20240625072850 59 139 0.0 0.0 0.00 0.00 0.00 96 1010.7
20240625072351 59 139 0.0 0.0 0.00 0.00 0.00 96 1010.7
20240625071851 59 139 0.0 0.0 0.00 0.00 0.00 96 1010.7
20240625071350 59 139 0.0 0.0 0.00 0.00 0.00 96 1010.6
20240625070851 59 139 0.0 0.0 0.00 0.00 0.00 96 1010.7
20240625070350 59 139 0.0 0.0 0.00 0.00 0.00 96 1010.6
20240625065851 59 139 0.0 0.0 0.00 0.00 0.00 96 1010.5
20240625065350 59 139 0.0 0.0 0.00 0.00 0.00 96 1010.4
20240625064851 59 139 0.0 0.0 0.00 0.00 0.00 96 1010.4
20240625064351 60 139 0.0 0.0 0.00 0.00 0.00 96 1010.4
20240625063850 60 139 0.0 0.0 0.00 0.00 0.00 96 1010.4
20240625063351 60 139 0.0 0.0 0.00 0.00 0.00 96 1010.3
20240625062850 60 139 0.0 0.0 0.00 0.00 0.00 96 1010.3
20240625062351 60 139 0.0 0.0 0.00 0.00 0.00 96 1010.3
20240625061850 60 139 0.0 0.0 0.00 0.00 0.00 96 1010.2
20240625061351 60 139 0.0 0.0 0.00 0.00 0.00 96 1010.2
20240625060850 60 139 0.0 0.0 0.00 0.00 0.00 96 1010.2
20240625060350 60 139 0.0 0.0 0.00 0.00 0.00 96 1010.2
20240625055851 60 139 0.0 0.0 0.00 0.00 0.00 96 1010.2
20240625055350 60 139 0.0 0.0 0.00 0.00 0.00 96 1010.2
20240625054851 60 139 0.0 0.0 0.00 0.00 0.00 96 1010.1
20240625054351 60 139 0.0 0.0 0.00 0.00 0.00 96 1010.0
20240625053851 60 139 0.0 0.0 0.00 0.00 0.00 96 1010.0
20240625053350 60 139 0.0 0.0 0.00 0.00 0.00 96 1010.0
20240625052850 60 139 0.0 0.0 0.00 0.00 0.00 96 1010.0
20240625052351 60 139 0.0 0.0 0.00 0.00 0.00 96 1010.0
20240625051850 61 139 0.0 0.0 0.00 0.00 0.00 96 1009.9
20240625051351 61 139 0.0 0.0 0.00 0.00 0.00 96 1009.9
20240625050850 61 139 0.0 0.0 0.00 0.00 0.00 95 1009.7
20240625050351 61 139 0.0 0.0 0.00 0.00 0.00 95 1009.7
20240625045850 61 139 0.0 0.0 0.00 0.00 0.00 95 1009.7
20240625045351 61 139 0.0 0.0 0.00 0.00 0.00 95 1009.7
20240625044850 61 139 0.0 0.0 0.00 0.00 0.00 95 1009.7
20240625044350 61 139 0.0 0.0 0.00 0.00 0.00 95 1009.8
20240625043851 61 139 0.0 0.0 0.00 0.00 0.00 95 1010.0
20240625043350 61 139 0.0 0.0 0.00 0.00 0.00 95 1009.9
20240625042851 62 139 0.0 0.0 0.00 0.00 0.00 95 1009.9
20240625042350 62 139 0.0 0.0 0.00 0.00 0.00 95 1009.8
20240625041851 62 139 0.0 0.0 0.00 0.00 0.00 94 1009.8
20240625041351 62 139 0.0 0.0 0.00 0.00 0.00 94 1009.8
20240625040850 62 139 0.0 0.0 0.00 0.00 0.00 94 1009.9
20240625040351 62 139 0.0 0.0 0.00 0.00 0.00 94 1009.8
20240625035850 62 139 0.0 0.0 0.00 0.00 0.00 94 1009.9
20240625035351 62 139 0.0 0.0 0.00 0.00 0.00 94 1009.9
20240625034850 63 139 0.0 0.0 0.00 0.00 0.00 94 1009.9
20240625034351 63 139 0.0 0.0 0.00 0.00 0.00 94 1009.9
20240625033850 63 139 0.0 0.0 0.00 0.00 0.00 94 1009.9
20240625033350 63 139 0.0 0.0 0.00 0.00 0.00 93 1009.8
20240625032850 63 139 0.0 0.0 0.00 0.00 0.00 93 1009.8
20240625032350 63 139 0.0 0.0 0.00 0.00 0.00 93 1009.8
20240625031851 63 139 0.0 0.0 0.00 0.00 0.00 93 1009.8
20240625031350 63 139 0.0 0.0 0.00 0.00 0.00 93 1009.8
20240625030851 63 139 0.0 0.0 0.00 0.00 0.00 93 1009.7
20240625030350 64 139 0.0 0.0 0.00 0.00 0.00 93 1009.7
20240625025850 64 139 0.0 0.0 0.00 0.00 0.00 93 1009.7
20240625025350 64 139 0.0 0.0 0.00 0.00 0.00 93 1009.7
20240625024850 64 139 0.0 0.0 0.00 0.00 0.00 93 1009.6
20240625024351 64 139 0.0 0.0 0.00 0.00 0.00 92 1009.7
20240625023850 64 139 0.0 0.0 0.00 0.00 0.00 92 1009.8
20240625023351 64 139 0.0 0.0 0.00 0.00 0.00 92 1009.7
20240625022850 65 139 0.0 0.0 0.00 0.00 0.00 92 1009.8
20240625022350 65 139 0.0 0.0 0.00 0.00 0.00 92 1009.8
20240625021850 65 139 0.0 0.0 0.00 0.00 0.00 92 1009.7
20240625021350 65 139 0.0 0.0 0.00 0.00 0.00 92 1009.6
20240625020850 65 139 0.0 0.0 0.00 0.00 0.00 91 1009.7
20240625020350 65 139 0.0 0.0 0.00 0.00 0.00 91 1009.6
20240625015851 65 139 0.0 0.0 0.00 0.00 0.00 91 1009.5
20240625015350 66 139 0.0 0.0 0.00 0.00 0.00 91 1009.4
20240625014850 66 139 0.0 0.0 0.00 0.00 0.00 91 1009.4
20240625014351 66 139 0.0 0.0 0.00 0.00 0.00 91 1009.4
20240625013850 66 139 0.0 0.0 0.00 0.00 0.00 91 1009.4
20240625013350 66 139 0.0 0.0 0.00 0.00 0.00 91 1009.4
20240625012850 66 139 0.0 0.0 0.00 0.00 0.00 91 1009.3
20240625012350 67 139 0.0 0.0 0.00 0.00 0.00 91 1009.2
20240625011850 67 139 0.0 0.0 0.00 0.00 0.00 91 1009.2
20240625011350 67 139 0.0 0.0 0.00 0.00 0.00 90 1009.1
20240625010850 67 139 0.0 0.0 0.00 0.00 0.00 90 1009.1
20240625010350 68 139 0.0 0.0 0.00 0.00 0.00 90 1009.1
20240625005850 68 139 0.0 0.0 0.00 0.00 0.00 90 1009.1
20240625005350 68 139 0.0 0.0 0.00 0.00 0.00 89 1009.0
20240625004850 68 139 0.0 0.0 0.00 0.00 0.00 89 1009.0
20240625004350 69 139 0.0 0.0 0.00 0.00 0.00 88 1009.0
20240625003851 69 139 0.0 0.0 0.00 0.00 0.00 88 1009.1
20240625003350 69 139 0.0 0.0 0.00 0.00 0.00 87 1009.0
20240625002850 70 139 0.0 0.0 0.00 0.00 0.00 87 1009.0
20240625002350 70 139 0.0 0.0 0.00 0.00 0.00 86 1009.1
20240625001850 70 139 0.0 0.0 0.00 0.00 0.00 86 1009.1
20240625001351 71 139 0.0 0.0 0.00 0.00 0.00 85 1009.2
20240625000850 71 139 0.0 0.0 0.00 0.00 0.00 84 1009.1
20240625000351 71 139 0.0 0.0 0.00 0.00 0.00 83 1009.2
20240624235850 72 139 0.0 0.0 0.00 0.00 0.00 82 1009.2
20240624235350 72 139 0.0 0.0 0.00 0.00 0.00 81 1009.2
20240624234850 72 139 0.0 0.0 0.00 0.00 0.00 81 1009.2
20240624234350 73 139 0.0 0.0 0.00 0.00 0.00 80 1009.1
20240624233850 73 139 0.0 0.0 0.00 0.00 0.00 80 1009.1
20240624233350 73 139 0.0 0.0 0.00 0.00 0.00 80 1009.1
20240624232850 73 139 0.0 0.0 0.00 0.00 0.00 79 1009.1
20240624232350 74 139 0.0 0.0 0.00 0.00 0.00 78 1009.1
20240624231850 74 139 0.0 0.0 0.00 0.00 0.00 77 1009.2
20240624231350 74 139 0.0 0.0 0.00 0.00 0.00 76 1009.2
20240624230850 74 139 0.0 0.0 0.00 0.00 0.00 77 1009.1
20240624230350 74 139 0.0 0.0 0.00 0.00 0.00 76 1009.1
20240624225850 74 139 0.0 0.0 0.00 0.00 0.00 75 1009.0
20240624225350 74 139 0.0 0.0 0.00 0.00 0.00 76 1009.0
20240624224850 74 139 0.0 0.0 0.00 0.00 0.00 75 1009.0
20240624224350 75 139 0.0 0.0 0.00 0.00 0.00 73 1009.0
20240624223850 75 139 0.0 0.0 0.00 0.00 0.00 74 1009.0
20240624223350 75 139 0.0 0.0 0.00 0.00 0.00 73 1009.0
20240624222851 75 139 0.0 0.0 0.00 0.00 0.00 73 1009.0
20240624222350 75 139 0.0 0.0 0.00 0.00 0.00 73 1008.9
20240624221850 75 139 0.0 0.0 0.00 0.00 0.00 74 1008.9
20240624221350 75 139 0.0 0.0 0.00 0.00 0.00 71 1009.0
20240624220849 76 139 0.0 0.0 0.00 0.00 0.00 71 1008.9
20240624220350 76 139 0.0 0.0 0.00 0.00 0.00 71 1008.9
20240624215850 76 139 0.0 0.0 0.00 0.00 0.00 69 1009.0
20240624215350 76 139 0.0 0.0 0.00 0.00 0.00 69 1008.9
20240624214850 76 139 0.0 0.0 0.00 0.00 0.00 69 1008.9
20240624214351 76 139 0.0 0.0 0.00 0.00 0.00 69 1008.9
20240624213850 76 139 0.0 0.0 0.00 0.00 0.00 70 1008.9
20240624213349 76 139 0.0 0.0 0.00 0.00 0.00 70 1008.9
20240624212850 76 139 0.0 0.0 0.00 0.00 0.00 68 1008.9
20240624212350 76 139 0.0 0.0 0.00 0.00 0.00 68 1008.9
20240624211850 76 139 0.0 0.0 0.00 0.00 0.00 68 1008.9
20240624211350 76 139 0.0 0.0 0.00 0.00 0.00 68 1008.9
20240624210850 77 139 0.0 0.0 0.00 0.00 0.00 67 1008.9
20240624210350 77 139 0.0 0.0 0.00 0.00 0.00 68 1008.9
20240624205849 77 139 0.0 0.0 0.00 0.00 0.00 67 1008.9
20240624205350 77 139 0.0 0.0 0.00 0.00 0.00 66 1008.9
20240624204849 77 139 0.0 0.0 0.00 0.00 0.00 65 1008.9
20240624204350 77 139 0.0 0.0 0.00 0.00 0.00 65 1009.0
20240624203850 77 139 0.0 0.0 0.00 0.00 0.00 65 1008.9
20240624203350 77 139 0.0 0.0 0.00 0.00 0.00 66 1008.9
20240624202850 77 139 0.0 0.0 0.00 0.00 0.00 65 1008.9
20240624202350 77 139 0.0 0.0 0.00 0.00 0.00 66 1008.8
20240624201850 77 139 0.0 0.0 0.00 0.00 0.00 66 1008.8
20240624201350 77 139 0.0 0.0 0.00 0.00 0.00 66 1008.8
20240624200850 77 139 0.0 0.0 0.00 0.00 0.00 68 1008.9
20240624200350 77 139 0.0 0.0 0.00 0.00 0.00 66 1008.9
20240624195850 77 139 0.0 0.0 0.00 0.00 0.00 69 1008.9
20240624195350 77 139 0.0 0.0 0.00 0.00 0.00 69 1008.9
20240624194850 76 139 0.0 0.0 0.00 0.00 0.00 69 1009.0
20240624194350 76 139 0.0 0.0 0.00 0.00 0.00 71 1009.0
20240624193849 76 139 0.0 0.0 0.00 0.00 0.00 69 1008.9
20240624193350 76 139 0.0 0.0 0.00 0.00 0.00 68 1008.9
20240624192849 75 139 0.0 0.0 0.00 0.00 0.00 66 1009.0
20240624192350 75 139 0.0 0.0 0.00 0.00 0.00 67 1009.0
20240624191850 75 139 0.0 0.0 0.00 0.00 0.00 67 1009.0
20240624191350 75 139 0.0 0.0 0.00 0.00 0.00 68 1008.9
20240624190850 75 139 0.0 0.0 0.00 0.00 0.00 67 1009.0
20240624190349 75 139 0.0 0.0 0.00 0.00 0.00 68 1009.0
20240624185850 76 139 0.0 0.0 0.00 0.00 0.00 67 1008.9
20240624185349 76 139 0.0 0.0 0.00 0.00 0.00 67 1008.9
20240624184850 76 139 0.0 0.0 0.00 0.00 0.00 68 1008.8
20240624184350 75 139 0.0 0.0 0.00 0.00 0.00 68 1008.8
20240624183850 75 139 0.0 0.0 0.00 0.00 0.00 70 1008.8
20240624183350 75 139 0.0 0.0 0.00 0.00 0.00 70 1008.7
20240624182849 75 139 0.0 0.0 0.00 0.00 0.00 69 1008.6
20240624182350 75 139 0.0 0.0 0.00 0.00 0.00 70 1008.6
20240624181849 75 139 0.0 0.0 0.00 0.00 0.00 70 1008.5
20240624181350 75 139 0.0 0.0 0.00 0.00 0.00 71 1008.4
20240624180849 75 139 0.0 0.0 0.00 0.00 0.00 75 1008.5
20240624180350 75 139 0.0 0.0 0.00 0.00 0.00 76 1008.5
20240624175850 75 139 0.0 0.0 0.00 0.00 0.00 78 1008.5
20240624175349 75 139 0.0 0.0 0.00 0.00 0.00 82 1008.4
20240624174850 74 139 0.0 0.0 0.00 0.00 0.00 84 1008.2
20240624174350 74 139 0.0 0.0 0.00 0.00 0.00 84 1008.2
20240624173850 74 139 0.0 0.0 0.00 0.00 0.00 83 1008.1
20240624173349 74 139 0.0 0.0 0.00 0.00 0.00 85 1008.0
20240624172850 74 139 0.0 0.0 0.00 0.00 0.00 84 1008.0
20240624172350 74 139 0.0 0.0 0.00 0.00 0.00 85 1008.1
20240624171849 74 139 0.0 0.0 0.00 0.00 0.00 88 1007.8
20240624171350 73 139 0.0 0.0 0.00 0.00 0.00 88 1007.8
20240624170849 73 139 0.0 0.0 0.00 0.00 0.00 88 1007.8
20240624170350 73 139 0.0 0.0 0.00 0.00 0.00 88 1007.8
20240624165849 73 139 0.0 0.0 0.00 0.00 0.00 90 1007.8
20240624165350 73 139 0.0 0.0 0.00 0.00 0.00 89 1007.6
20240624164849 72 139 0.0 0.0 0.00 0.00 0.00 90 1007.7
20240624164349 72 139 0.0 0.0 0.00 0.00 0.00 90 1007.6
20240624163850 72 139 0.0 0.0 0.00 0.00 0.00 90 1007.6
20240624163349 71 139 0.0 0.0 0.00 0.00 0.00 91 1007.5
20240624162850 71 139 0.0 0.0 0.00 0.00 0.00 92 1007.4
20240624162349 70 139 0.0 0.0 0.00 0.00 0.00 92 1007.3
20240624161850 70 139 0.0 0.0 0.00 0.00 0.00 92 1007.3
20240624161350 69 139 0.0 0.0 0.00 0.00 0.00 92 1007.2
20240624160850 69 139 0.0 0.0 0.00 0.00 0.00 92 1007.2
20240624160349 69 139 0.0 0.0 0.00 0.00 0.00 93 1007.1
20240624155849 69 139 0.0 0.0 0.00 0.00 0.00 94 1007.1
20240624155350 68 139 0.0 0.0 0.00 0.00 0.00 94 1007.0
20240624154849 68 139 0.0 0.0 0.00 0.00 0.00 94 1006.9
20240624154350 68 139 0.0 0.0 0.00 0.00 0.00 94 1006.9
20240624153849 68 139 0.0 0.0 0.00 0.00 0.00 94 1006.8
20240624153350 68 139 0.0 0.0 0.00 0.00 0.00 94 1006.8
20240624152849 68 139 0.0 0.0 0.00 0.00 0.00 94 1006.7
20240624152349 67 139 0.0 0.0 0.00 0.00 0.00 95 1006.6
20240624151850 67 139 0.0 0.0 0.00 0.00 0.00 95 1006.6
20240624151349 66 139 0.0 0.0 0.00 0.00 0.00 96 1006.4
20240624150850 66 139 0.0 0.0 0.00 0.00 0.00 96 1006.3
20240624150349 65 139 0.0 0.0 0.00 0.00 0.00 97 1006.4
20240624145850 65 139 0.0 0.0 0.00 0.00 0.00 97 1006.4
20240624145349 64 139 0.0 0.0 0.00 0.00 0.00 97 1006.3
20240624144849 64 139 0.0 0.0 0.00 0.00 0.00 97 1006.3
20240624144350 64 139 0.0 0.0 0.00 0.00 0.00 97 1006.4
20240624143849 64 139 0.0 0.0 0.00 0.00 0.00 97 1006.4
20240624143350 63 139 0.0 0.0 0.00 0.00 0.00 97 1006.3
20240624142849 63 139 0.0 0.0 0.00 0.00 0.00 98 1006.4